Temperature
14 14 14 14 13 14 14 14 14 13 13 13 13 13 13 13 13 13 13 14 14 14 14 14 14 14 14 15 15 14 15 15 15 16 16 15 15 16 15 16 16 15 15
14 14 13 13 13 13 13 14 13 13 13 13 13 12 12 13 13 13 13 13 13 13 13 13 13 14 14 14 14 14 14 14 14 15 16 15 15 15 15 15 15 15 15
13 13 13 13 13 13 13 13 12 12 12 13 12 12 12 12 12 12 12 12 12 12 13 13 13 13 13 13 13 14 14 14 14 14 15 15 15 15 15 15 15 15 14
13 13 13 13 13 13 12 12 12 12 12 12 13 13 12 12 12 12 12 12 12 12 12 12 12 12 12 12 13 13 13 13 13 14 14 15 15 15 15 15 14 14 14
12 12 12 12 12 12 12 12 12 12 12 12 13 13 12 12 11 11 12 12 12 12 12 12 12 12 12 12 12 12 13 13 13 13 14 14 15 15 15 15 14 14 14
12 12 12 12 12 12 12 12 12 12 12 12 12 12 12 12 12 12 12 12 11 11 11 11 11 11 11 11 11 11 11 12 12 12 12 13 13 13 14 14 14 14 14
11 11 12 12 12 12 12 12 12 12 12 12 12 12 12 12 12 12 12 12 11 11 11 11 11 11 11 11 11 11 11 11 11 11 12 12 12 12 13 13 13 13 13
11 11 11 11 11 11 11 11 12 12 12 12 12 11 12 12 12 12 12 11 11 11 11 11 11 11 11 11 11 11 11 11 11 11 11 12 12 12 12 12 12 13 13
11 11 11 11 11 11 11 11 11 11 11 11 11 11 11 11 11 11 11 11 11 11 11 11 11 11 11 11 11 11 12 12 12 12 12 12 12 12 12 12 12 12 12
11 11 10 10 10 10 11 10 10 10 11 11 11 11 11 11 11 11 11 11 11 11 11 11 11 11 11 11 11 11 12 12 12 12 12 12 12 12 12 12 12 12 12
10 10 9 9 10 10 10 10 10 10 10 10 10 10 10 11 10 10 10 11 10 10 11 11 11 10 11 11 11 11 11 11 11 11 11 11 11 11 12 12 12 12 12
10 9 9 9 9 10 10 10 10 10 10 10 10 10 10 10 10 10 10 10 10 10 10 10 10 10 10 10 10 10 10 11 11 11 11 11 11 11 11 11 11 12 12
9 9 9 9 9 10 10 10 10 9 9 9 9 9 9 9 9 9 9 9 9 9 9 9 9 9 9 10 10 10 10 10 10 10 10 10 10 11 11 11 11 11 12
9 8 9 9 9 9 9 9 9 9 9 9 9 9 8 8 8 8 8 8 9 9 9 9 9 9 9 9 9 9 9 9 9 9 9 9 10 10 11 11 10 11 11
8 8 8 9 9 9 9 9 9 9 9 9 9 8 8 8 8 8 8 8 8 8 8 8 8 9 9 9 9 9 9 9 9 9 9 9 9 9 9 9 9 9 10
9 9 9 9 8 8 8 8 9 9 8 8 8 8 8 8 8 8 8 8 8 8 8 8 8 8 8 8 8 8 8 8 8 8 8 9 9 8 8 9 9 9 10
9 9 9 9 9 9 9 9 9 9 9 9 8 8 8 8 8 8 8 8 7 8 8 8 8 8 8 8 8 8 7 7 7 7 8 8 8 8 8 8 8 8 9
9 9 9 9 9 9 9 9 9 9 9 9 8 8 8 8 8 8 8 8 8 8 8 8 7 7 7 7 7 7 6 6 6 6 6 6 7 7 7 7 7 7 8
10 10 10 10 10 10 10 10 9 9 9 9 9 8 8 8 8 8 8 8 8 7 7 7 7 7 7 7 6 6 6 5 5 5 5 5 5 5 6 6 6 6 7
10 10 10 10 10 10 10 10 10 10 9 9 9 9 9 9 8 8 8 8 8 7 7 7 7 6 6 6 6 5 5 4 4 4 4 4 4 4 4 5 5 5 5
11 11 11 10 10 11 11 10 10 10 10 10 10 9 9 9 9 8 8 8 7 7 7 7 7 6 6 5 5 5 4 4 4 3 3 3 3 3 3 4 4 4 4
11 11 11 11 11 11 11 11 10 10 10 10 10 9 9 9 8 8 8 8 7 7 7 7 6 6 5 5 5 4 4 4 3 3 3 3 3 3 3 3 3 3 3
11 11 11 11 11 11 11 11 11 10 10 10 10 9 9 9 9 8 8 7 7 7 7 6 6 6 5 4 4 4 3 3 3 3 3 3 2 2 2 2 2 3 3
12 11 11 11 11 11 11 11 11 11 11 11 10 10 10 9 9 8 8 8 7 7 7 6 6 5 5 4 4 3 3 3 3 2 2 2 2 2 2 2 2 2 2
12 12 12 12 11 11 11 11 11 11 11 11 11 10 10 9 9 8 8 8 7 7 7 6 6 5 5 4 3 3 3 2 2 2 2 2 2 2 2 2 2 2 2
12 12 12 12 11 11 11 11 11 11 11 11 11 11 10 10 9 9 8 8 7 7 6 6 5 5 4 4 3 2 2 2 2 2 1 1 1 1 2 1 1 1 1
Wind_Speed
0 3 6 5 4 3 1 2 4 4 5 5 5 4 3 3 3 4 4 3 2 2 2 4 4 5 5 5 4 2 2 3 5 4 3 4 5 4 4 5 7 6 6
2 5 6 6 5 4 1 2 3 4 4 3 4 5 5 4 4 5 5 3 3 2 3 4 4 4 6 4 4 4 3 2 4 5 3 3 5 5 5 5 4 5 6
3 4 6 6 5 3 2 3 3 3 5 4 4 4 4 5 5 5 5 3 4 4 5 5 5 6 6 5 5 5 4 4 3 3 4 3 3 2 3 3 4 3 6
3 3 4 6 6 4 4 2 1 4 5 5 5 5 6 6 7 6 6 7 6 6 6 6 6 5 5 5 5 6 6 6 5 3 3 3 3 2 3 4 3 3 4
3 3 3 4 4 2 1 1 3 4 4 4 5 7 7 7 7 6 5 6 6 6 6 6 7 9 9 6 4 5 6 5 5 4 4 3 2 1 2 3 4 3 2
4 3 3 4 4 4 4 4 5 5 5 5 6 6 7 6 9 10 8 8 8 8 7 6 6 9 10 9 8 7 6 5 5 5 4 4 5 3 1 1 4 4 3
4 4 5 5 6 6 5 5 4 4 4 5 5 6 6 7 10 10 11 8 8 7 7 7 7 9 10 8 9 9 9 10 9 4 4 5 5 6 4 2 1 2 2
3 4 4 5 6 5 5 5 4 3 4 4 5 5 5 7 8 9 10 8 8 7 7 6 7 9 11 9 8 8 8 7 8 5 2 3 3 4 3 2 1 3 3
4 4 3 5 5 4 3 3 3 4 5 4 4 6 7 8 7 8 7 5 5 6 6 6 7 8 12 13 10 9 10 9 8 8 6 6 7 8 6 3 4 4 2
4 3 3 4 4 3 3 1 2 3 5 5 6 7 8 8 11 11 7 4 4 4 6 7 11 11 12 12 7 7 9 7 9 9 8 7 7 7 7 4 2 2 1
4 5 5 4 3 3 3 2 3 4 6 6 7 7 7 8 13 16 14 7 5 6 6 7 8 15 15 13 9 5 6 5 6 8 9 8 7 7 7 4 2 2 2
5 5 4 3 1 2 3 3 4 6 7 6 7 6 5 6 10 13 16 14 9 7 5 5 7 15 15 13 9 10 13 10 7 7 8 8 7 7 7 7 5 3 3
6 5 4 3 2 1 3 4 5 6 6 5 6 5 3 3 5 10 12 12 12 6 5 9 11 14 13 9 11 13 10 7 6 7 6 5 5 6 7 8 8 7 5
7 5 4 3 3 4 4 4 6 6 6 5 5 4 3 3 4 5 5 6 8 8 7 9 11 12 10 8 8 7 6 5 4 3 3 4 5 7 9 9 8 8 6
7 5 4 3 4 5 5 4 5 4 7 7 5 4 4 2 2 3 4 4 5 5 6 5 6 6 8 8 7 6 5 6 6 4 4 5 6 6 5 4 4 4 4
6 5 4 3 3 4 5 5 7 5 6 7 6 5 2 2 2 2 4 5 7 8 4 4 5 5 5 6 6 6 7 7 6 5 5 5 5 6 5 4 3 3 4
7 6 4 4 4 4 5 5 4 3 4 5 4 3 4 6 6 6 6 7 7 4 1 2 2 3 4 5 6 6 6 6 6 6 6 5 5 5 5 5 5 5 6
8 8 7 6 6 6 6 6 6 6 4 2 4 8 10 10 9 8 5 3 4 3 1 1 2 3 3 4 4 4 4 5 6 6 7 7 6 5 5 6 6 6 5
8 6 6 6 6 7 7 7 7 7 6 5 4 6 11 9 8 6 2 2 1 0 1 2 3 3 3 2 2 3 3 3 3 4 4 5 5 5 5 5 5 7 6
9 12 10 7 6 6 6 6 7 8 7 6 7 7 5 3 2 2 3 3 4 4 4 4 4 5 4 3 3 3 3 3 3 3 3 4 4 3 4 4 4 4 4
9 9 13 8 7 7 6 7 7 8 7 7 8 10 12 7 6 5 4 5 5 6 6 6 5 5 5 4 3 4 5 3 2 2 3 4 4 4 4 4 4 4 4
9 8 8 8 7 7 6 7 8 9 9 9 7 7 14 7 6 6 5 5 6 6 7 6 6 5 5 5 5 5 5 4 2 2 3 3 4 5 4 4 5 4 4
11 10 9 8 8 10 9 8 9 9 8 8 8 7 8 8 8 7 6 6 7 7 5 5 5 4 3 5 6 5 5 5 4 3 3 3 3 4 4 4 4 4 5
13 12 12 10 9 8 9 10 10 10 10 9 8 8 10 10 9 8 7 7 7 7 5 6 5 8 8 6 6 8 9 8 7 5 4 3 2 3 4 4 4 5 4
12 11 11 11 11 10 10 11 11 11 10 9 9 9 10 10 9 9 7 7 9 8 8 8 8 9 11 11 11 12 12 10 8 6 4 2 2 3 4 4 5 4 3
13 12 11 11 11 11 11 11 11 12 11 10 9 10 11 11 10 9 7 8 9 9 8 6 10 11 11 13 15 15 13 11 8 6 3 2 2 3 5 4 7 5 3
Wind_Direction
130 145 142 152 157 157 184 285 297 295 294 296 303 305 307 309 327 341 337 351 51 49 51 74 67 53 37 21 11 341 244 212 230 265 257 231 209 189 167 154 146 159 177
77 137 148 149 143 142 171 276 309 317 304 295 311 319 324 332 343 339 332 342 21 66 86 77 61 55 43 16 359 350 330 272 233 256 270 239 216 199 180 164 154 175 191
59 142 153 152 153 165 229 284 336 40 63 60 60 49 33 29 25 5 353 18 51 74 79 69 50 47 36 10 1 360 342 326 279 257 273 259 230 186 168 165 165 174 195
53 127 155 168 178 194 231 271 55 100 94 71 55 44 38 31 21 14 38 62 66 66 65 60 45 37 26 3 358 1 358 351 343 327 299 292 257 214 161 165 165 182 195
67 104 151 174 175 181 207 152 126 116 98 74 58 40 29 29 17 18 43 56 57 55 53 47 35 26 16 4 352 350 354 348 345 346 339 340 346 0 201 172 161 158 160
68 69 91 100 96 89 102 111 106 104 103 81 67 53 35 22 22 50 68 62 58 56 48 30 23 21 8 8 1 347 342 350 346 343 340 356 357 343 331 162 145 143 170
91 88 93 95 91 86 86 83 79 84 97 88 78 64 41 17 37 62 74 76 68 63 59 46 40 27 22 26 24 22 15 20 24 5 351 351 346 346 347 23 91 130 158
123 117 116 106 99 93 86 77 63 57 71 74 77 70 46 19 40 77 80 74 69 57 51 50 48 33 26 35 40 26 12 7 2 4 346 325 335 332 342 352 45 79 73
126 121 124 129 126 123 113 94 72 77 78 78 72 62 46 19 44 94 90 70 57 38 24 29 37 36 24 36 39 24 14 6 2 354 325 315 332 358 9 45 49 61 44
138 126 119 130 143 158 171 153 89 97 107 100 78 64 60 44 44 57 61 63 49 22 10 15 25 28 27 36 41 31 18 349 356 15 13 349 340 346 11 48 90 95 131
138 126 118 111 151 191 189 168 120 113 113 104 92 75 66 62 56 55 55 56 58 48 28 11 5 13 24 33 47 36 360 344 9 32 31 17 2 349 338 327 266 187 177
131 131 123 91 95 177 163 143 120 123 117 109 100 79 52 48 59 62 62 61 64 59 28 358 355 9 13 15 25 23 28 28 27 35 32 19 5 355 347 334 315 277 228
123 124 124 97 57 104 134 128 124 127 124 120 115 105 74 46 47 53 53 50 48 45 6 352 356 7 7 4 359 12 24 32 34 38 24 4 345 348 13 11 356 342 326
138 141 137 108 78 71 80 109 130 137 133 131 129 122 94 42 25 20 21 21 21 18 359 345 346 355 3 358 356 2 11 19 34 36 10 347 352 13 27 24 9 352 341
155 161 159 132 111 93 74 70 106 135 157 153 155 142 121 72 350 14 20 8 4 357 347 351 358 355 356 352 352 358 10 16 22 16 25 24 19 17 16 20 2 332 329
168 178 182 165 140 129 114 80 54 88 118 129 133 136 149 192 227 280 303 316 329 339 10 1 349 353 357 1 9 15 22 21 6 2 17 31 30 23 15 10 11 357 352
179 186 193 193 181 168 156 146 137 76 66 84 110 150 206 231 248 268 289 310 318 327 29 13 11 21 37 41 42 43 34 21 17 15 14 16 29 35 32 23 15 9 10
189 193 192 199 199 194 186 179 172 169 176 215 229 230 239 250 268 289 306 344 356 25 67 97 89 80 70 63 55 50 43 36 40 35 20 8 11 30 37 26 15 7 7
197 200 197 198 204 205 197 189 189 188 185 182 192 233 244 257 281 282 201 148 156 82 122 131 145 148 142 121 88 71 63 45 39 48 40 19 360 10 25 21 11 6 8
205 209 197 198 203 197 186 183 187 188 191 188 192 206 212 206 240 230 191 187 184 187 181 175 178 178 170 156 125 99 80 56 43 41 23 8 360 1 4 13 15 6 357
206 211 205 193 195 190 176 173 174 175 182 191 201 206 189 190 211 220 206 196 190 187 186 185 184 181 180 173 156 134 127 112 77 53 32 11 6 6 354 356 4 7 351
206 208 197 192 195 194 183 176 176 180 184 187 201 214 202 195 206 211 210 206 197 192 190 187 190 191 187 182 174 162 155 152 137 83 48 23 11 5 360 358 356 351 340
205 207 207 204 197 194 190 185 187 191 193 193 192 193 193 205 214 212 211 205 190 189 191 184 182 187 188 192 191 177 170 171 165 142 94 44 22 4 351 344 342 345 349
198 199 204 206 201 192 191 195 198 200 200 199 195 195 198 206 214 216 211 198 184 183 178 172 167 170 171 173 174 171 166 160 148 130 114 92 36 359 347 342 335 335 342
196 194 196 202 205 204 201 203 206 208 208 206 201 200 202 206 212 215 208 192 180 179 179 172 172 176 178 176 172 168 164 158 149 138 122 106 44 5 347 334 328 321 328
201 199 197 199 204 208 208 209 212 214 215 213 206 201 200 203 208 208 197 186 182 181 179 178 182 181 181 182 179 175 173 167 160 148 123 83 24 359 350 331 323 318 307
Height
1505 1506 1507 1507 1508 1507 1506 1505 1504 1502 1500 1498 1496 1494 1491 1489 1487 1486 1485 1483 1482 1482 1482 1482 1482 1481 1480 1480 1480 1480 1481 1480 1479 1479 1479 1478 1478 1478 1478 1477 1477 1476 1476
1505 1505 1506 1506 1506 1506 1505 1504 1502 1501 1499 1497 1495 1493 1490 1488 1486 1485 1484 1483 1482 1482 1482 1482 1481 1480 1479 1479 1478 1478 1477 1477 1476 1475 1474 1474 1474 1474 1474 1475 1476 1476 1477
1504 1504 1505 1505 1504 1504 1503 1502 1501 1501 1499 1497 1495 1493 1490 1488 1486 1485 1484 1483 1482 1482 1482 1482 1481 1479 1478 1477 1476 1475 1474 1473 1472 1471 1470 1471 1470 1470 1471 1472 1474 1475 1476
1503 1503 1503 1503 1503 1503 1503 1502 1501 1500 1499 1497 1495 1492 1490 1487 1486 1485 1485 1484 1483 1483 1482 1481 1480 1478 1477 1476 1475 1473 1471 1471 1470 1469 1468 1467 1466 1466 1467 1469 1471 1472 1474
1501 1501 1501 1501 1502 1502 1502 1502 1501 1500 1499 1498 1495 1493 1491 1489 1488 1487 1486 1485 1484 1483 1482 1482 1480 1479 1477 1476 1475 1473 1471 1471 1469 1468 1466 1465 1464 1463 1464 1465 1468 1470 1472
1498 1499 1499 1499 1500 1501 1501 1502 1501 1501 1500 1499 1497 1495 1493 1491 1489 1488 1487 1486 1485 1484 1484 1483 1481 1480 1478 1477 1476 1475 1473 1471 1469 1468 1467 1465 1463 1462 1461 1462 1464 1466 1469
1497 1497 1498 1499 1499 1500 1500 1501 1501 1501 1501 1499 1498 1497 1495 1493 1492 1490 1489 1488 1487 1486 1486 1485 1483 1482 1481 1480 1479 1477 1475 1473 1471 1469 1468 1466 1464 1462 1461 1461 1462 1463 1466
1496 1497 1497 1498 1498 1499 1499 1499 1500 1501 1501 1500 1499 1498 1497 1495 1494 1493 1492 1491 1490 1489 1488 1487 1486 1485 1483 1482 1481 1479 1477 1475 1473 1471 1470 1468 1466 1464 1464 1463 1462 1462 1464
1494 1495 1496 1497 1497 1498 1498 1499 1499 1500 1500 1500 1500 1499 1498 1497 1496 1495 1495 1494 1493 1492 1491 1490 1489 1487 1486 1484 1482 1480 1479 1477 1476 1474 1473 1471 1470 1468 1466 1465 1464 1464 1464
1493 1495 1495 1496 1497 1497 1497 1498 1499 1500 1500 1500 1500 1500 1500 1499 1498 1497 1496 1496 1495 1494 1493 1492 1490 1489 1488 1486 1484 1482 1481 1479 1477 1476 1475 1474 1473 1471 1468 1467 1466 1466 1465
1492 1493 1494 1495 1496 1496 1497 1498 1498 1499 1499 1500 1500 1501 1501 1500 1499 1498 1497 1496 1496 1495 1494 1493 1492 1490 1489 1487 1486 1484 1483 1481 1479 1477 1476 1475 1474 1472 1471 1470 1469 1468 1466
1490 1492 1493 1494 1495 1496 1496 1496 1497 1498 1498 1499 1500 1500 1500 1500 1500 1499 1498 1497 1497 1496 1495 1494 1493 1492 1490 1489 1488 1486 1484 1482 1480 1478 1477 1476 1475 1473 1472 1471 1470 1468 1467
1488 1490 1491 1492 1493 1494 1494 1495 1495 1496 1497 1498 1499 1499 1500 1500 1499 1499 1498 1498 1497 1496 1495 1495 1494 1492 1491 1489 1488 1487 1485 1482 1481 1479 1479 1478 1476 1474 1472 1470 1468 1467 1466
1486 1487 1489 1490 1491 1491 1492 1493 1494 1495 1496 1497 1498 1499 1499 1499 1499 1499 1498 1498 1497 1496 1496 1494 1493 1492 1490 1489 1488 1486 1484 1482 1481 1480 1479 1478 1475 1473 1470 1468 1467 1466 1464
1483 1485 1487 1488 1489 1490 1491 1493 1494 1495 1497 1498 1498 1499 1500 1500 1500 1499 1498 1497 1496 1495 1494 1493 1492 1490 1489 1488 1487 1485 1484 1482 1480 1479 1478 1477 1475 1473 1471 1469 1469 1467 1465
1482 1483 1485 1487 1488 1490 1491 1493 1494 1496 1497 1498 1498 1499 1500 1500 1499 1498 1497 1496 1495 1494 1493 1492 1491 1490 1489 1488 1487 1485 1483 1482 1480 1479 1477 1475 1474 1472 1471 1470 1468 1466 1463
1481 1482 1484 1486 1488 1489 1491 1492 1494 1496 1497 1498 1498 1499 1499 1499 1499 1498 1497 1496 1495 1494 1493 1492 1491 1490 1490 1489 1487 1486 1484 1483 1481 1479 1477 1475 1473 1471 1470 1468 1466 1464 1462
1480 1482 1483 1485 1487 1489 1490 1492 1493 1495 1496 1497 1498 1499 1499 1499 1499 1498 1497 1496 1495 1494 1493 1493 1492 1491 1491 1490 1488 1487 1485 1483 1481 1479 1478 1475 1473 1470 1468 1467 1465 1463 1461
1478 1480 1482 1483 1485 1487 1488 1490 1491 1493 1494 1496 1496 1497 1498 1498 1498 1497 1496 1495 1494 1494 1493 1493 1492 1491 1491 1489 1488 1486 1484 1482 1480 1478 1477 1476 1474 1471 1468 1466 1465 1463 1461
1474 1476 1479 1480 1482 1483 1485 1486 1487 1489 1491 1493 1493 1494 1495 1495 1495 1495 1494 1494 1493 1492 1492 1492 1491 1490 1489 1487 1486 1484 1482 1480 1479 1477 1476 1474 1472 1471 1468 1466 1464 1462 1461
1470 1472 1474 1476 1478 1480 1481 1482 1484 1485 1487 1488 1489 1491 1491 1492 1492 1492 1492 1491 1491 1490 1490 1489 1489 1488 1486 1485 1483 1482 1480 1479 1477 1476 1475 1473 1471 1469 1467 1465 1463 1461 1460
1465 1467 1469 1471 1473 1475 1477 1479 1480 1482 1483 1484 1485 1486 1487 1487 1488 1488 1487 1487 1487 1487 1486 1486 1485 1484 1483 1482 1481 1479 1478 1477 1476 1475 1473 1472 1470 1468 1466 1464 1462 1460 1458
1458 1461 1464 1466 1468 1470 1472 1474 1476 1477 1478 1479 1480 1481 1481 1482 1482 1482 1482 1482 1482 1482 1482 1481 1481 1480 1479 1478 1477 1476 1475 1474 1473 1472 1471 1470 1468 1466 1465 1463 1462 1460 1458
1451 1454 1457 1459 1461 1463 1466 1468 1469 1471 1472 1473 1474 1475 1475 1476 1477 1477 1477 1477 1477 1477 1477 1477 1476 1476 1475 1474 1473 1472 1471 1471 1470 1469 1468 1467 1465 1464 1463 1462 1460 1459 1457
1444 1447 1450 1452 1454 1456 1458 1460 1463 1464 1466 1467 1468 1469 1469 1470 1471 1471 1472 1471 1471 1471 1472 1472 1472 1471 1471 1470 1469 1469 1468 1467 1467 1466 1465 1464 1463 1461 1460 1459 1458 1457 1455
1435 1439 1442 1444 1447 1449 1451 1453 1455 1457 1459 1461 1461 1462 1462 1463 1464 1465 1465 1465 1466 1466 1467 1467 1467 1467 1466 1466 1465 1465 1465 1464 1463 1463 1462 1461 1460 1459 1457 1456 1455 1454 1453